This is the latest recevied weather packets stored in our database for station/object KG4IFE-13. If no packets are shown the sender has not sent any weather packets the latest 10 day(s).
| Time | Temp. | Humidity | Pressure | Rain* | Wind** | Luminosity | Snow |
|---|---|---|---|---|---|---|---|
| 1777443945 | 13.89° C | 87% | 1015.9 hPa | - | - | - | - |
| 1777443664 | 13.89° C | 87% | 1015.9 hPa | - | - | - | - |
| 1777439128 | 13.89° C | 86% | 1015.9 hPa | - | - | - | - |
| 1777438247 | 13.89° C | 86% | 1016.5 hPa | - | - | - | - |
| 1777435818 | 13.89° C | 85% | 1017.1 hPa | - | - | - | - |
| 1777435519 | 13.89° C | 85% | 1017.1 hPa | - | - | - | - |
| 1777434916 | 14.44° C | 84% | 1017.4 hPa | - | - | - | - |
| 1777434010 | 14.44° C | 84% | 1017.5 hPa | - | - | - | - |
| 1777433108 | 14.44° C | 84% | 1017.6 hPa | - | - | - | - |
| 1777431904 | 14.44° C | 83% | 1017.9 hPa | - | - | - | - |
| 1777430399 | 15° C | 82% | 1018 hPa | - | - | - | - |
| 1777428615 | 15° C | 81% | 1017.9 hPa | - | - | - | - |
| 1777428294 | 15° C | 81% | 1017.9 hPa | - | - | - | - |
| 1777427690 | 15.56° C | 81% | 1017.5 hPa | - | - | - | - |
| 1777426486 | 15.56° C | 80% | 1016.8 hPa | - | - | - | - |
| 1777425283 | 16.11° C | 80% | 1016.4 hPa | - | - | - | - |
| 1777424680 | 16.11° C | 79% | 1016.3 hPa | - | - | - | - |
| 1777421068 | 17.78° C | 77% | 1015.7 hPa | - | - | - | - |
| 1777420768 | 17.78° C | 77% | 1015.4 hPa | - | - | - | - |
| 1777420165 | 17.78° C | 77% | 1015 hPa | - | - | - | - |
| 1777419585 | 18.33° C | 76% | 1014.6 hPa | - | - | - | - |
| 1777416855 | 19.44° C | 74% | 1015.5 hPa | - | - | - | - |
| 1777415650 | 20° C | 73% | 1015.6 hPa | - | - | - | - |
| 1777413543 | 20.56° C | 72% | 1015.9 hPa | - | - | - | - |
| 1777411757 | 21.67° C | 70% | 1015.5 hPa | - | - | - | - |
* Rain since midnight (hover to see other rain measurements)
** Current wind speed in m/s (hover to see current wind gust speed)